Home   Weather   Woodbridge   Past weeks
Flag for USA

Past Weather in Woodbridge, California, USA — Yesterday and Last 2 Weeks

Now
53 °F

Overcast.


Feels Like: 53 °F
Forecast: 65 / 53 °F
Wind: No wind

Location: Stockton Metropolitan Airport

Current Time: Mar 26, 2019 at 7:43:36 am

Latest Report: Mar 26, 2019 at 6:55 am


Visibility: 10 mi

Pressure: 30.04 "Hg

Humidity: 89%

Dew Point: 50 °F

Location of WoodbridgeLocation

Past Weather in Woodbridge — Graph

°F

Woodbridge Temperature Yesterday

Maximum temperature yesterday: 68 °F (at 12:55 pm)
Minimum temperature yesterday: 46 °F (at 4:55 am)
Average temperature yesterday: 57 °F

High & Low Weather Summary for the Past Weeks

 TemperatureHumidityPressure
High78 °F (Mar 18, 2:55 pm)97% (Mar 23, 3:33 am)30.29 "Hg (Mar 23, 3:33 am)
Low37 °F (Mar 14, 6:55 am)26% (Mar 13, 4:55 pm)29.76 "Hg (Mar 19, 5:55 pm)
Average55 °F67%30.07 "Hg
* Reported Mar 11 5:55 am — Mar 26 5:55 am, Woodbridge. Weather by CustomWeather, © 2019

Note: Actual official high and low records may vary slightly from our data, if they occured in-between our weather recording intervals... More about our weather records

Advertising

Woodbridge Weather History for the Previous 24 Hours

Scroll right to see more
 ConditionsComfort  
Time TempWeatherWind HumidityBarometerVisibility
5:55 am
Tue, Mar 26
53 °FMostly cloudy.3 mph89%30.04 "Hg9 mi
5:03 am53 °FMostly cloudy.7 mph89%30.04 "Hg8 mi
4:55 am53 °FMostly cloudy.8 mph89%30.03 "Hg7 mi
4:28 am53 °FMostly cloudy.12 mph89%30.04 "Hg10 mi
3:55 am54 °FLow clouds.8 mph90%30.04 "Hg10 mi
3:41 am54 °FMostly cloudy.8 mph93%30.04 "Hg10 mi
3:29 am54 °FMostly cloudy.7 mph90%30.04 "Hg7 mi
3:07 am55 °FLight rain. Mostly cloudy.12 mph90%30.05 "Hg9 mi
2:55 am56 °FOvercast.6 mph90%30.05 "Hg10 mi
1:55 am56 °FLight rain. Mostly cloudy.5 mph90%30.05 "Hg10 mi
12:55 am56 °FLight rain. Overcast.3 mph90%30.06 "Hg8 mi
11:55 pm
Mon, Mar 25
57 °FLight rain. Mostly cloudy.3 mph87%30.04 "Hg7 mi
11:15 pm57 °FLight rain. Mostly cloudy.8 mph90%30.06 "Hg10 mi
11:03 pm57 °FLight rain. Overcast.6 mph90%30.07 "Hg10 mi
10:55 pm57 °FMostly cloudy.10 mph90%30.06 "Hg10 mi
9:55 pm57 °FMostly cloudy.8 mph87%30.06 "Hg10 mi
8:55 pm59 °FOvercast.8 mph84%30.03 "Hg10 mi
7:55 pm59 °FOvercast.7 mph81%30.03 "Hg10 mi
6:55 pm60 °FPartly sunny.14 mph78%30.02 "Hg10 mi
5:55 pm67 °FLight rain. Partly sunny.3 mph51%30.00 "Hg10 mi
4:55 pm67 °FOvercast.12 mph44%30.01 "Hg10 mi
3:55 pm68 °FSunny.10 mph45%30.03 "Hg10 mi
2:55 pm68 °FPassing clouds.13 mph42%30.04 "Hg10 mi
1:55 pm67 °FSunny.10 mph44%30.06 "Hg10 mi
12:55 pm68 °FScattered clouds.12 mph42%30.08 "Hg10 mi
11:55 am64 °FSunny.13 mph52%30.09 "Hg10 mi
10:55 am60 °FPartly sunny.12 mph65%30.09 "Hg10 mi
9:55 am55 °FSunny.13 mph72%30.09 "Hg10 mi
8:55 am51 °FSunny.9 mph80%30.09 "Hg10 mi
7:55 am48 °FSunny.8 mph86%30.06 "Hg8 mi
Weather by CustomWeather, © 2019

See weather overview